When you browse on this site, cookies collect data to enhance your experience and personalize the content and advertising you see.
Visit our Privacy Policy to learn more. By continuing to use the site, you agree to this use of cookies and data.
  • în România
  • Lista ţărilor
  • Pe 7 zile
  • Temperatura apei
  • Hartă satelitară
  • Meteo pe hartă
  • Widget-uri
  • user-avatar
    Intrare

    Meteo pe oră la Louhi

    Astăzi, 22 Februarie, Vineri

    Timp Temperatura Precipitaţii Vânt Presiune Umiditate
    00:00 -17°C° 0 mm 3 m/s 762 mmHg 83%
    01:00 -17°C° 0 mm 3 m/s 762 mmHg 81%
    02:00 -18°C° 0 mm 4 m/s 763 mmHg 79%
    03:00 -18°C° 0 mm 4 m/s 763 mmHg 79%
    04:00 -17°C° 0 mm 4 m/s 763 mmHg 78%
    05:00 -17°C° 0 mm 4 m/s 763 mmHg 77%
    06:00 -17°C° 0 mm 4 m/s 763 mmHg 78%
    07:00 -17°C° 0 mm 4 m/s 763 mmHg 78%
    08:00 -17°C° 0 mm 4 m/s 763 mmHg 78%
    09:00 -16°C° 0 mm 4 m/s 763 mmHg 77%
    10:00 -15°C° 0 mm 4 m/s 763 mmHg 75%
    11:00 -14°C° 0 mm 4 m/s 763 mmHg 74%
    12:00 -12°C° 0 mm 4 m/s 763 mmHg 75%
    13:00 -12°C° 0 mm 4 m/s 762 mmHg 75%
    14:00 -11°C° 0 mm 4 m/s 762 mmHg 76%
    15:00 -11°C° 0 mm 4 m/s 761 mmHg 77%
    16:00 -12°C° 0 mm 4 m/s 761 mmHg 79%
    17:00 -12°C° 0 mm 4 m/s 760 mmHg 80%
    18:00 -12°C° 0 mm 5 m/s 759 mmHg 81%
    19:00 -12°C° 0 mm 5 m/s 758 mmHg 82%
    20:00 -12°C° 0 mm 5 m/s 757 mmHg 83%
    21:00 -11°C° 0.2 mm 5 m/s 756 mmHg 86%
    22:00 -11°C° 0.2 mm 5 m/s 755 mmHg 88%
    23:00 -10°C° 0.2 mm 6 m/s 754 mmHg 91%

    Mâine, 23 Februarie, Sâmbătă

    Timp Temperatura Precipitaţii Vânt Presiune Umiditate
    00:00 -10°C° 0.6 mm 5 m/s 753 mmHg 91%
    01:00 -8°C° 0.6 mm 5 m/s 752 mmHg 92%
    02:00 -7°C° 0.6 mm 5 m/s 751 mmHg 92%
    03:00 -5°C° 0.2 mm 4 m/s 750 mmHg 92%
    04:00 -4°C° 0.2 mm 4 m/s 750 mmHg 92%
    05:00 -1°C° 0.2 mm 3 m/s 749 mmHg 93%
    06:00 -1°C° 0.1 mm 3 m/s 749 mmHg 93%
    07:00 0°C° 0.1 mm 3 m/s 748 mmHg 94%
    08:00 0°C° 0.1 mm 3 m/s 748 mmHg 95%
    09:00 0°C° 0 mm 3 m/s 748 mmHg 96%
    10:00 +1°C° 0 mm 2 m/s 748 mmHg 98%
    11:00 +2°C° 0 mm 2 m/s 748 mmHg 99%
    12:00 +1°C° 0 mm 3 m/s 748 mmHg 99%
    13:00 +1°C° 0 mm 3 m/s 748 mmHg 99%
    14:00 +1°C° 0 mm 3 m/s 748 mmHg 99%
    15:00 +1°C° 0 mm 3 m/s 749 mmHg 99%
    16:00 +1°C° 0 mm 3 m/s 749 mmHg 99%
    17:00 0°C° 0 mm 4 m/s 750 mmHg 98%
    18:00 0°C° 0 mm 3 m/s 750 mmHg 97%
    19:00 0°C° 0 mm 3 m/s 751 mmHg 96%
    20:00 0°C° 0 mm 3 m/s 752 mmHg 95%
    21:00 -1°C° 0 mm 3 m/s 752 mmHg 94%
    22:00 -1°C° 0 mm 3 m/s 753 mmHg 93%
    23:00 -2°C° 0 mm 3 m/s 753 mmHg 92%

    Poimâine, 24 Februarie, Duminică

    Timp Temperatura Precipitaţii Vânt Presiune Umiditate
    00:00 -2°C° 0 mm 3 m/s 753 mmHg 92%
    01:00 -2°C° 0 mm 3 m/s 754 mmHg 92%
    02:00 -2°C° 0 mm 3 m/s 754 mmHg 93%
    03:00 -2°C° 0 mm 3 m/s 754 mmHg 93%
    04:00 -3°C° 0 mm 2 m/s 754 mmHg 93%
    05:00 -3°C° 0 mm 2 m/s 754 mmHg 93%
    06:00 -3°C° 0 mm 2 m/s 754 mmHg 92%
    07:00 -3°C° 0 mm 2 m/s 753 mmHg 92%
    08:00 -3°C° 0 mm 2 m/s 753 mmHg 91%
    09:00 -2°C° 0 mm 3 m/s 753 mmHg 92%
    10:00 -1°C° 0 mm 3 m/s 752 mmHg 92%
    11:00 0°C° 0 mm 3 m/s 751 mmHg 92%
    12:00 -1°C° 0.4 mm 4 m/s 750 mmHg 93%
    13:00 -1°C° 0.4 mm 4 m/s 749 mmHg 94%
    14:00 -1°C° 0.4 mm 4 m/s 748 mmHg 94%
    15:00 -1°C° 0.5 mm 4 m/s 747 mmHg 94%
    16:00 -1°C° 0.5 mm 4 m/s 746 mmHg 94%
    17:00 0°C° 0.5 mm 4 m/s 746 mmHg 94%
    18:00 0°C° 0.3 mm 5 m/s 745 mmHg 94%
    19:00 0°C° 0.3 mm 5 m/s 745 mmHg 94%
    20:00 0°C° 0.3 mm 5 m/s 744 mmHg 93%
    21:00 0°C° 0.3 mm 5 m/s 744 mmHg 91%
    22:00 -1°C° 0.3 mm 6 m/s 745 mmHg 88%
    23:00 -1°C° 0.3 mm 6 m/s 745 mmHg 85%

    25 Februarie, Luni

    Timp Temperatura Precipitaţii Vânt Presiune Umiditate
    00:00 -1°C° 0 mm 6 m/s 745 mmHg 84%
    01:00 -2°C° 0 mm 6 m/s 746 mmHg 82%
    02:00 -3°C° 0 mm 6 m/s 746 mmHg 81%
    03:00 -2°C° 0 mm 5 m/s 745 mmHg 81%
    04:00 -2°C° 0 mm 5 m/s 745 mmHg 81%
    05:00 -2°C° 0 mm 5 m/s 744 mmHg 81%
    06:00 -2°C° 0.1 mm 5 m/s 744 mmHg 81%
    07:00 -3°C° 0.1 mm 6 m/s 743 mmHg 82%
    08:00 -3°C° 0.1 mm 6 m/s 743 mmHg 82%
    09:00 -2°C° 0 mm 6 m/s 743 mmHg 82%
    10:00 -2°C° 0 mm 6 m/s 744 mmHg 83%
    11:00 -2°C° 0 mm 6 m/s 744 mmHg 83%
    12:00 -2°C° 0 mm 6 m/s 745 mmHg 83%
    13:00 -1°C° 0 mm 6 m/s 746 mmHg 82%
    14:00 -1°C° 0 mm 6 m/s 746 mmHg 82%
    15:00 -2°C° 0 mm 6 m/s 747 mmHg 82%
    16:00 -2°C° 0 mm 5 m/s 748 mmHg 81%
    17:00 -2°C° 0 mm 5 m/s 749 mmHg 81%
    18:00 -4°C° 0 mm 4 m/s 749 mmHg 84%
    19:00 -5°C° 0 mm 3 m/s 750 mmHg 87%
    20:00 -5°C° 0 mm 2 m/s 750 mmHg 90%
    21:00 -5°C° 0 mm 2 m/s 749 mmHg 91%
    22:00 -6°C° 0 mm 2 m/s 749 mmHg 91%
    23:00 -4°C° 0 mm 1 m/s 749 mmHg 92%

    26 Februarie, Marţi

    Timp Temperatura Precipitaţii Vânt Presiune Umiditate
    00:00 -4°C° 0 mm 1 m/s 748 mmHg 92%
    01:00 -4°C° 0 mm 1 m/s 747 mmHg 92%
    02:00 -4°C° 0 mm 1 m/s 746 mmHg 92%
    03:00 -4°C° 0 mm 1 m/s 746 mmHg 93%
    04:00 -6°C° 0 mm 2 m/s 745 mmHg 93%
    05:00 -6°C° 0 mm 2 m/s 745 mmHg 94%
    06:00 -6°C° 0.1 mm 2 m/s 745 mmHg 95%
    07:00 -6°C° 0.1 mm 2 m/s 745 mmHg 95%
    08:00 -4°C° 0.1 mm 1 m/s 745 mmHg 96%
    09:00 -3°C° 0.1 mm 1 m/s 745 mmHg 95%
    10:00 -3°C° 0.1 mm 1 m/s 746 mmHg 95%
    11:00 -2°C° 0.1 mm 1 m/s 747 mmHg 94%
    12:00 -2°C° 0.1 mm 1 m/s 747 mmHg 94%
    13:00 -2°C° 0.1 mm 1 m/s 748 mmHg 94%
    14:00 -1°C° 0.1 mm 1 m/s 749 mmHg 95%
    15:00 -3°C° 0 mm 2 m/s 749 mmHg 94%
    16:00 -3°C° 0 mm 2 m/s 750 mmHg 94%
    17:00 -4°C° 0 mm 3 m/s 751 mmHg 94%
    18:00 -4°C° 0 mm 3 m/s 751 mmHg 92%
    19:00 -4°C° 0 mm 3 m/s 751 mmHg 90%
    20:00 -5°C° 0 mm 3 m/s 751 mmHg 88%
    21:00 -5°C° 0 mm 3 m/s 751 mmHg 88%
    22:00 -6°C° 0 mm 3 m/s 751 mmHg 88%
    23:00 -6°C° 0 mm 3 m/s 752 mmHg 88%

    27 Februarie, Miercuri

    Timp Temperatura Precipitaţii Vânt Presiune Umiditate
    00:00 -7°C° 0 mm 3 m/s 751 mmHg 89%
    01:00 -7°C° 0 mm 3 m/s 751 mmHg 90%
    02:00 -7°C° 0 mm 3 m/s 751 mmHg 91%
    03:00 -7°C° 0 mm 3 m/s 750 mmHg 91%
    04:00 -8°C° 0 mm 3 m/s 750 mmHg 91%
    05:00 -7°C° 0 mm 2 m/s 749 mmHg 90%
    06:00 -7°C° 0.1 mm 3 m/s 747 mmHg 90%
    07:00 -7°C° 0.1 mm 4 m/s 746 mmHg 90%
    08:00 -5°C° 0.1 mm 4 m/s 744 mmHg 90%
    09:00 -5°C° 0.2 mm 5 m/s 742 mmHg 89%
    10:00 -4°C° 0.2 mm 5 m/s 740 mmHg 88%
    11:00 -2°C° 0.2 mm 6 m/s 739 mmHg 88%
    12:00 -2°C° 0.2 mm 6 m/s 737 mmHg 89%
    13:00 -1°C° 0.2 mm 6 m/s 736 mmHg 90%
    14:00 0°C° 0.2 mm 5 m/s 734 mmHg 91%
    15:00 0°C° 0 mm 5 m/s 733 mmHg 88%
    16:00 0°C° 0 mm 5 m/s 732 mmHg 86%
    17:00 0°C° 0 mm 5 m/s 730 mmHg 83%
    18:00 0°C° 0 mm 5 m/s 729 mmHg 83%
    19:00 0°C° 0 mm 5 m/s 728 mmHg 83%
    20:00 0°C° 0 mm 5 m/s 727 mmHg 83%
    21:00 0°C° 0 mm 5 m/s 726 mmHg 84%
    22:00 -1°C° 0 mm 5 m/s 725 mmHg 84%
    23:00 -1°C° 0 mm 4 m/s 724 mmHg 85%
    Arată mai mult